Weather History for KHKY - January, 2013

Change the Weather History Date:

Monday, January 14, 2013

  Actual Average Record
Temperature  
Mean Temperature 62 °F -  
Max Temperature 64 °F 46 °F 70 °F (2007)
Min Temperature 57 °F 26 °F 12 °F (1964)
Degree Days  
Heating Degree Days 4    
Growing Degree Days 12 (Base 50)    
Moisture  
Dew Point 61 °F    
Average Humidity 95    
Maximum Humidity 100    
Minimum Humidity 86    
Precipitation  
Precipitation 0.41 in - - ()
Sea Level Pressure  
Sea Level Pressure 30.07 in    
Wind  
Wind Speed 5 mph (SSW)    
Max Wind Speed 12 mph    
Max Gust Speed 24 mph    
Visibility 4 miles    
Events Rain    
Averages and records for this station are not official NWS values.
T = Trace of Precipitation, MM = Missing Value Source: NWS Daily Summary

Daily Weather History Graph

Daily Weather History Graph

Search for Another Location

Airport or City:

Trip Planner

Search our weather history database for the weather conditions in past years. The results will help you decide how hot, cold, wet, or windy it might be!

Date:

Astronomy

Jan. 14, 2013 Rise Set
Actual Time 7:34 AM EST 5:34 PM EST
Civil Twilight 7:07 AM EST 6:02 PM EST
Nautical Twilight 6:35 AM EST 6:34 PM EST
Astronomical Twilight 6:05 AM EST 7:04 PM EST
Moon 9:15 AM EST (1/14) 9:09 PM EST (1/14)
Length of Visible Light 10h 55m
Length of Day
9h 59m
Waxing Crescent, 11% of the Moon is Illuminated
Jan 14
Waxing Crescent
Jan 18
First Quarter
Jan 26
Full
Feb 3
Last Quarter
Feb 10
New

Hourly Weather History & Observations

Time (EST) Temp. Dew Point Humidity Pressure Visibility Wind Dir Wind Speed Gust Speed Precip Events Conditions
12:53 AM 62.1 °F 57.9 °F 86% 30.02 in 10.0 mi South 6.9 mph - N/A   Overcast
1:53 AM 62.1 °F 57.9 °F 86% 30.03 in 10.0 mi SSW 8.1 mph - 0.00 in   Overcast
2:53 AM 62.1 °F 57.9 °F 86% 30.04 in 10.0 mi SSW 6.9 mph - 0.00 in Rain Light Rain
3:53 AM 62.1 °F 57.9 °F 86% 30.02 in 7.0 mi SSW 11.5 mph - 0.01 in Rain Light Rain
4:53 AM 61.0 °F 59.0 °F 93% 30.01 in 10.0 mi South 6.9 mph - 0.02 in Rain Light Rain
5:53 AM 60.1 °F 59.0 °F 96% 30.01 in 6.0 mi South 4.6 mph - 0.01 in Rain Light Rain
6:53 AM 61.0 °F 59.0 °F 93% 30.03 in 7.0 mi South 4.6 mph - 0.02 in   Overcast
7:53 AM 61.0 °F 59.0 °F 93% 30.04 in 4.0 mi South 6.9 mph - N/A   Overcast
8:53 AM 61.0 °F 59.0 °F 93% 30.06 in 2.5 mi South 4.6 mph - 0.00 in Rain Light Rain
9:13 AM 60.8 °F 59.0 °F 94% 30.11 in 3.0 mi South 4.6 mph - 0.00 in Rain Light Rain
9:20 AM 60.8 °F 59.0 °F 94% 30.11 in 3.0 mi South 5.8 mph - 0.00 in   Overcast
9:36 AM 60.8 °F 59.0 °F 94% 30.11 in 1.8 mi SSW 3.5 mph - 0.00 in   Overcast
9:53 AM 61.0 °F 60.1 °F 97% 30.07 in 1.5 mi SSW 4.6 mph - 0.01 in Rain Light Rain
10:42 AM 60.8 °F 60.8 °F 100% 30.12 in 2.5 mi South 6.9 mph - 0.03 in Rain Rain
10:50 AM 60.8 °F 60.8 °F 100% 30.12 in 3.0 mi SSW 5.8 mph - 0.03 in Rain Light Rain
10:53 AM 61.0 °F 60.1 °F 97% 30.07 in 3.0 mi SSW 4.6 mph - 0.04 in Rain Rain
11:10 AM 60.8 °F 60.8 °F 100% 30.11 in 3.0 mi South 4.6 mph - 0.04 in Rain Rain
11:17 AM 62.6 °F 60.8 °F 94% 30.11 in 4.0 mi South 5.8 mph - 0.05 in Rain Light Rain
11:53 AM 62.1 °F 60.1 °F 93% 30.05 in 6.0 mi SSW 5.8 mph - 0.10 in Rain Light Rain
12:53 PM 63.0 °F 61.0 °F 93% 30.02 in 10.0 mi Calm Calm - 0.02 in Rain Light Rain
1:53 PM 64.0 °F 62.1 °F 93% 30.01 in 10.0 mi South 4.6 mph - 0.01 in   Overcast
2:12 PM 64.4 °F 62.6 °F 94% 30.06 in 8.0 mi SSW 4.6 mph - 0.00 in Rain Light Rain
2:53 PM 64.0 °F 61.0 °F 90% 30.02 in 7.0 mi South 3.5 mph - 0.01 in Rain Light Rain
3:10 PM 64.4 °F 62.6 °F 94% 30.07 in 5.0 mi Calm Calm - 0.01 in Rain Light Rain
3:39 PM 64.4 °F 62.6 °F 94% 30.08 in 4.0 mi Calm Calm - 0.03 in Rain Light Rain
3:53 PM 64.0 °F 62.1 °F 93% 30.04 in 3.0 mi Calm Calm - 0.04 in Rain Light Rain
4:51 PM 64.4 °F 62.6 °F 94% 30.09 in 5.0 mi South 3.5 mph - 0.04 in Rain Light Rain
4:52 PM 64.0 °F 62.1 °F 93% 30.05 in 5.0 mi Variable 3.5 mph - 0.04 in   Overcast
5:01 PM 64.4 °F 62.6 °F 94% 30.09 in 5.0 mi Calm Calm - N/A   Overcast
5:13 PM 64.4 °F 62.6 °F 94% 30.10 in 4.0 mi Variable 4.6 mph - N/A   Overcast
5:42 PM 62.6 °F 62.6 °F 100% 30.10 in 4.0 mi Variable 3.5 mph - 0.01 in Rain Light Rain
5:53 PM 64.0 °F 62.1 °F 93% 30.05 in 5.0 mi Calm Calm - 0.01 in Rain Light Rain
6:53 PM 63.0 °F 62.1 °F 97% 30.06 in 3.0 mi Calm Calm - N/A   Overcast
7:12 PM 62.6 °F 62.6 °F 100% 30.10 in 3.0 mi Calm Calm - N/A   Overcast
7:16 PM 62.6 °F 62.6 °F 100% 30.10 in 2.5 mi Calm Calm - N/A   Overcast
7:32 PM 62.6 °F 62.6 °F 100% 30.10 in 3.0 mi Calm Calm - N/A   Overcast
7:45 PM 62.6 °F 62.6 °F 100% 30.10 in 4.0 mi Calm Calm - N/A   Overcast
7:53 PM 63.0 °F 62.1 °F 97% 30.06 in 3.0 mi Calm Calm - N/A   Overcast
8:03 PM 62.6 °F 62.6 °F 100% 30.10 in 2.5 mi Calm Calm - N/A   Overcast
8:24 PM 62.6 °F 62.6 °F 100% 30.09 in 3.0 mi South 4.6 mph - N/A   Overcast
8:33 PM 62.6 °F 62.6 °F 100% 30.09 in 3.0 mi South 4.6 mph - N/A   Overcast
8:53 PM 64.0 °F 62.1 °F 93% 30.04 in 4.0 mi South 4.6 mph - N/A   Overcast
9:02 PM 64.4 °F 62.6 °F 94% 30.08 in 4.0 mi South 3.5 mph - N/A   Overcast
9:53 PM 64.0 °F 62.1 °F 93% 30.04 in 5.0 mi Calm Calm - 0.00 in Rain Light Rain
10:02 PM 62.6 °F 62.6 °F 100% 30.09 in 3.0 mi Calm Calm - 0.00 in Rain Light Rain
10:10 PM 62.6 °F 62.6 °F 100% 30.09 in 4.0 mi Calm Calm - 0.00 in   Overcast
10:22 PM 62.6 °F 62.6 °F 100% 30.09 in 2.0 mi Calm Calm - 0.00 in   Overcast
10:31 PM 62.6 °F 62.6 °F 100% 30.10 in 4.0 mi Calm Calm - 0.00 in   Overcast
10:40 PM 64.4 °F 62.6 °F 94% 30.10 in 4.0 mi Calm Calm - 0.01 in Rain Light Rain
10:48 PM 62.6 °F 62.6 °F 100% 30.10 in 1.8 mi Calm Calm - 0.01 in Rain Light Rain
10:53 PM 63.0 °F 62.1 °F 97% 30.06 in 0.8 mi Calm Calm - 0.01 in Rain Light Rain
11:00 PM 62.6 °F 60.8 °F 94% 30.10 in 1.2 mi Calm Calm - 0.00 in Rain Light Rain
11:17 PM 59.0 °F 57.2 °F 94% 30.12 in 3.0 mi WNW 11.5 mph 24.2 mph 0.05 in Rain Light Rain
11:53 PM 57.0 °F 55.9 °F 96% 30.09 in 9.0 mi NNW 6.9 mph - 0.06 in Rain Light Rain